This is the latest recevied weather packets stored in our database for station/object VR2R-13. If no packets are shown the sender has not sent any weather packets the latest 1 day(s).
| Time | Temp. | Humidity | Pressure | Rain* | Wind** | Luminosity | Snow |
|---|---|---|---|---|---|---|---|
| 1836274850 | 20° C | 98% | - | 2.79 mm | 3.13 m/s, 274° | - | - |
| 1836274670 | 20° C | 98% | - | 3.3 mm | 4.02 m/s, 289° | - | - |
| 1836274549 | 20° C | 98% | - | 3.81 mm | 3.58 m/s, 296° | - | - |
| 1836274399 | 20° C | 98% | - | 1.78 mm | 4.47 m/s, 287° | - | - |
| 1836274310 | 20° C | 98% | - | 4.57 mm | 4.02 m/s, 291° | - | - |
| 1836274280 | 20° C | 98% | - | 2.54 mm | 4.02 m/s, 264° | - | - |
| 1836274249 | 20° C | 98% | - | 4.83 mm | 4.47 m/s, 290° | - | - |
| 1836273952 | 20° C | 98% | - | 6.6 mm | 4.92 m/s, 226° | - | - |
| 1836273951 | 20° C | 98% | - | 6.6 mm | 4.92 m/s, 332° | - | - |
| 1778063394 | 18.33° C | 98% | 913.4 hPa | 0 mm | 2.24 m/s, 120° | - | - |
| 1778063272 | 18.33° C | 98% | 913.3 hPa | 0 mm | 1.79 m/s, 96° | - | - |
| 1778063034 | 17.78° C | 98% | 913.3 hPa | 0 mm | 1.79 m/s, 155° | - | - |
| 1778062972 | 17.78° C | 98% | 913.3 hPa | 0 mm | 2.24 m/s, 138° | - | - |
| 1778062674 | 17.78° C | 98% | 913.2 hPa | 0 mm | 0 m/s | - | - |
| 1778062673 | 17.78° C | 98% | 913.2 hPa | 0 mm | 0 m/s | - | - |
| 1778062372 | 18.33° C | 98% | 913.1 hPa | 0 mm | 1.79 m/s, 202° | - | - |
| 1778062314 | 18.33° C | 98% | 913.2 hPa | 0 mm | 1.79 m/s, 159° | - | - |
| 1778062072 | 18.33° C | 98% | 913.1 hPa | 0 mm | 1.34 m/s, 196° | - | - |
| 1778061953 | 18.33° C | 98% | 913.1 hPa | 0 mm | 1.79 m/s, 224° | - | - |
| 1778061772 | 18.33° C | 98% | 913.1 hPa | 0 mm | 2.24 m/s, 186° | - | - |
| 1778061594 | 18.33° C | 98% | 913.1 hPa | 0 mm | 1.79 m/s, 174° | - | - |
| 1778061472 | 18.33° C | 98% | 913.1 hPa | 0 mm | 2.24 m/s, 153° | - | - |
| 1778061233 | 18.33° C | 98% | 913.1 hPa | 0 mm | 1.79 m/s, 129° | - | - |
| 1778061172 | 18.33° C | 98% | 913 hPa | 0 mm | 1.34 m/s, 162° | - | - |
| 1778060874 | 18.89° C | 98% | 913.1 hPa | 0 mm | 0.45 m/s, 228° | - | - |
* Rain latest hour (hover to see other rain measurements)
** Current wind speed in m/s (hover to see current wind gust speed)